Flag for Germany Weather past 2 weeks in Nuremberg, Bavaria, Germany

Now
70 °F

Clear.


Feels Like: 70 °F
Forecast: 62 / 89 °F
Wind: 6 mph from East

Location: Nuernberg

Current Time: Aug 3, 2015 at 11:29:41 PM

Latest Report: Aug 3, 2015 at 10:50 PM


Visibility: 10 mi

Pressure: 30.04 "Hg

Humidity: 60%

Dew point: 55 °F

Location of NurembergLocation

Historic Weather in Nuremberg — Graph

°F

Nuremberg temperature yesterday

Maximum temperature yesterday: 84 °F (at 3:20 PM)
Minimum temperature yesterday: 54 °F (at 5:20 AM)
Average temperature yesterday: 69 °F

Past Weeks' High & Low Weather Summary

 TemperatureHumidityPressure
High97 °F (Jul 22, 3:50 PM)100% (Jul 23, 1:50 AM)30.12 "Hg (Jul 23, 1:50 AM)
Low43 °F (Jul 31, 5:50 AM)22% (Jul 22, 4:20 PM)29.68 "Hg (Jul 25, 12:50 AM)
Average68 °F61%29.94 "Hg
* Reported Jul 19 10:20 PM — Aug 3 10:20 PM, Nuremberg, Weather by CustomWeather, © 2015

Note: Actual official high and low records may vary slightly from our data, if they occured in-between our weather recording intervals... More about our weather records

Advertising

Nuremberg weather history for previous 24 hours

 ConditionsComfort  
Time TempWeatherWind HumidityBarometerVisibility
10:20 PM
Mon, Aug 3
75 °FClear.6 mph50%30.04 "Hg10 mi
9:50 PM75 °FSunny.5 mph50%30.04 "Hg10 mi
9:20 PM77 °FSunny.5 mph47%30.04 "Hg10 mi
8:50 PM81 °FSunny.6 mph39%30.01 "Hg10 mi
8:20 PM82 °FSunny.7 mph37%30.01 "Hg10 mi
7:50 PM84 °FSunny.7 mph33%30.01 "Hg10 mi
7:20 PM86 °FSunny.7 mph31%30.01 "Hg10 mi
6:50 PM86 °FPassing clouds.7 mph31%30.01 "HgN/A
6:20 PM88 °FPassing clouds.6 mph27%30.01 "HgN/A
5:50 PM88 °FPassing clouds.7 mph25%30.04 "HgN/A
5:20 PM86 °FSunny.5 mph29%30.04 "Hg10 mi
4:50 PM86 °FSunny.5 mph29%30.04 "Hg10 mi
4:20 PM86 °FPassing clouds.7 mph29%30.04 "HgN/A
3:50 PM86 °FPassing clouds.9 mph29%30.04 "HgN/A
3:20 PM86 °FSunny.3 mph31%30.07 "Hg10 mi
2:20 PM84 °FSunny.5 mph33%30.07 "Hg10 mi
1:50 PM82 °FPassing clouds.7 mph35%30.07 "HgN/A
1:20 PM82 °FSunny.5 mph37%30.07 "Hg10 mi
12:50 PM81 °FSunny.5 mph39%30.09 "Hg10 mi
12:20 PM79 °FSunny.5 mph42%30.09 "Hg10 mi
11:50 AM79 °FPassing clouds.6 mph42%30.09 "HgN/A
11:20 AM77 °FPassing clouds.6 mph47%30.09 "HgN/A
10:50 AM77 °FPassing clouds.6 mph47%30.12 "HgN/A
10:20 AM73 °FSunny.5 mph53%30.12 "Hg10 mi
9:50 AM73 °FPassing clouds.6 mph57%30.12 "HgN/A
9:20 AM70 °FPassing clouds.6 mph60%30.12 "HgN/A
8:50 AM68 °FPassing clouds.6 mph69%30.12 "HgN/A
8:20 AM66 °FPassing clouds.5 mph73%30.12 "HgN/A
7:50 AM64 °FSunny.6 mph78%30.12 "Hg10 mi
7:20 AM61 °FSunny.5 mph88%30.09 "Hg10 mi
6:50 AM59 °FSunny.5 mph88%30.09 "Hg10 mi
6:20 AM57 °FClear.6 mph94%30.09 "Hg10 mi
5:50 AM57 °FClear.2 mph88%30.09 "Hg10 mi
5:20 AM59 °FClear.5 mph88%30.09 "Hg10 mi
4:50 AM59 °FClear.3 mph82%30.09 "Hg10 mi
4:20 AM59 °FClear.3 mph82%30.09 "Hg10 mi
3:50 AM61 °FClear.5 mph83%30.09 "Hg10 mi
3:20 AM61 °FClear.6 mph83%30.09 "Hg10 mi
2:50 AM61 °FClear.6 mph77%30.09 "Hg10 mi
2:20 AM63 °FClear.7 mph73%30.09 "Hg10 mi
1:50 AM61 °FClear.7 mph77%30.09 "Hg10 mi
1:20 AM63 °FClear.5 mph73%30.09 "Hg10 mi
12:50 AM63 °FClear.5 mph73%30.09 "Hg10 mi
12:20 AM64 °FClear.6 mph68%30.09 "Hg10 mi
11:50 PM
Sun, Aug 2
64 °FClear.7 mph68%30.09 "Hg10 mi
11:20 PM64 °FClear.3 mph64%30.09 "Hg10 mi
Weather by CustomWeather, © 2015

See weather overviewHow to use our weather pages